Location: Papaitonga Lake
(40.6500°S, 175.2333°E)
Time: 22:15:44
(UTC+00:00)

Daily predictions for brighter satellites

Satellite Brightness Start Highest point End
(mag) Time Altitude Azimuth Time Altitude Azimuth Time Altitude Azimuth
Lacrosse 5 4.1 14:21:39 17° S 14:23:55 23° SSE 14:27:57 10° ESE
Cosmos 1943 Rocket 3.9 14:28:02 26° SSW 14:28:02 26° SSW 14:30:56 10° S
Cosmos 2369 Rocket 2.9 14:46:05 48° S 14:46:05 48° S 14:50:10 10° SSE
SL-16 R/B 3.4 14:44:34 10° SSE 14:50:29 44° E 14:52:04 37° NE
Cosmos 1867 4.1 14:53:15 55° ESE 14:53:15 55° ESE 14:57:39 10° SE
Cosmos 2173 Rocket 4.3 14:53:21 10° S 14:59:43 63° E 15:02:05 38° NE
ALOS 4.2 15:03:17 22° SSW 15:03:17 22° SSW 15:04:57 10° SSW
SL-4 R/B 4.1 15:06:42 21° S 15:06:42 21° S 15:08:50 10° SE
CZ-2C R/B 3.6 15:12:13 17° ENE 15:12:13 17° ENE 15:13:23 10° ENE
ATLAS 2AS CENTAUR R/B 2.4 15:13:16 69° WSW 15:13:37 71° SW 15:20:17 10° SSE
Cosmos 1408 Rocket 4.5 15:16:44 44° S 15:16:44 44° S 15:19:51 10° S
ARIANE 5 R/B 2.5 15:15:15 73° ENE 15:15:34 76° ESE 15:20:45 10° S
Meteor 1-19 Rocket 4.3 15:10:10 10° S 15:16:04 78° E 15:17:42 49° NNE
ISS -0.8 15:19:51 13° S 15:19:51 13° S 15:21:14 10° SSE
Cosmos 1656 Rocket 4.4 15:26:54 37° SW 15:26:54 37° SW 15:31:25 10° S
SeaSat 1 4.3 15:28:01 10° S 15:30:46 18° SW 15:30:46 18° SW
Cosmos 1727 Rocket 4.5 15:32:27 41° WSW 15:32:27 41° WSW 15:38:00 10° S
RESURS DK-1 4.2 15:34:00 21° SSW 15:34:00 21° SSW 15:36:01 10° S
Envisat 3.5 15:28:14 10° NNE 15:33:16 60° ESE 15:38:21 10° S
UNK 3.6 15:29:40 10° SSE 15:34:19 83° WSW 15:34:19 83° WSW
CZ-2C R/B 4.1 15:41:19 18° SW 15:41:19 18° SW 15:42:39 10° SSW
Cosmos 2100 Rocket 4.0 15:34:35 10° SSW 15:40:47 59° W 15:42:19 46° NW
Cosmos 2016 Rocket 4.0 15:36:48 10° S 15:43:06 87° E 15:49:26 10° N
ATLAS 3B R/B 3.1 15:40:32 10° SSW 15:47:03 59° SE 15:53:18 10° NE
Cosmos 1833 4.1 15:43:09 10° SSW 15:48:42 60° WNW 15:54:14 10° N
Hubble Space Telescope 3.1 15:51:17 14° NNE 15:51:17 14° NNE 15:52:35 10° NE
Helios 1A 4.0 15:46:34 10° SSE 15:50:39 44° E 15:53:42 16° NNE
Cosmos 1484 Rocket 3.0 15:53:40 52° SW 15:53:40 52° SW 15:56:45 10° SSW
YAOGAN 6 2.5 15:56:19 69° SW 15:56:19 69° SW 15:59:30 10° SSW
Cosmos 1805 Rocket 3.4 15:56:10 53° NNW 15:57:07 76° W 16:01:34 10° S
Cosmos 2251 Rocket 4.4 15:53:42 12° N 15:58:24 48° ENE 16:03:31 10° SSE
Cosmos 2061 Rocket 3.9 15:54:50 10° S 16:01:17 81° W 16:07:34 10° N
Cosmos 614 Rocket 3.9 16:00:43 38° NW 16:02:41 71° WSW 16:07:59 10° SSE
YAOGAN 11 4.0 16:00:29 10° S 16:04:54 68° WSW 16:06:27 39° NW
Meteor 1-18 Rocket 4.3 16:00:01 10° SSW 16:06:00 68° W 16:11:49 10° N
Lacrosse 5 1.8 16:02:20 10° SW 16:07:32 88° SE 16:12:39 10° NE
Cosmos 1459 Rocket 4.4 16:02:25 10° SSW 16:08:07 39° W 16:10:26 29° NW
Meteor 1-29 2.9 16:13:59 54° WNW 16:14:11 55° W 16:17:31 10° SSW
Meteor 1-28 Rocket 4.4 16:11:06 10° SSW 16:13:49 26° SW 16:13:49 26° SW
PSLV R/B 3.5 16:10:13 10° NNE 16:14:25 81° ESE 16:18:41 10° S
Cosmos 2228 Rocket 3.1 16:11:34 10° S 16:16:14 76° W 16:20:49 10° N
Cosmos 1666 Rocket 3.9 16:13:15 10° N 16:17:40 69° E 16:22:08 10° SSE
Cosmos 1743 Rocket 4.3 16:19:04 31° W 16:19:28 31° WSW 16:23:25 10° SSW
Sich 1 3.2 16:18:59 31° NW 16:20:41 49° W 16:25:00 10° S
NOAA 11 4.1 16:15:21 10° NNE 16:20:49 88° WNW 16:26:21 10° SSW
CZ-4B R/B 3.9 16:15:43 10° NNE 16:20:50 68° ESE 16:25:54 10° S
CZ-2D R/B 4.3 16:21:09 31° W 16:21:14 31° W 16:25:11 10° SSW
Cosmos 2233 Rocket 3.9 16:18:23 10° S 16:24:41 75° W 16:31:00 10° N
H-2A R/B 2.6 16:21:36 10° N 16:25:23 64° W 16:29:14 10° SSW
Cosmos 2369 Rocket 4.1 16:27:52 11° WSW 16:29:32 13° SW 16:31:56 10° SSW
Meteor 2-4 Rocket 4.0 16:25:21 10° SSW 16:31:05 49° W 16:36:46 10° NNW
CZ-4C R/B 1.8 16:26:36 10° SW 16:31:58 87° ESE 16:36:23 10° NE
SL-27 R/B 2.3 16:28:39 10° SSW 16:32:06 66° WNW 16:35:32 10° N
SL-16 R/B 3.4 16:28:31 10° S 16:33:51 31° WSW 16:37:09 19° WNW
NOSS 3-1 (C) 4.3 16:29:24 10° SSW 16:35:36 49° SE 16:40:44 10° ENE
Cosmos 2098 Rocket 3.9 16:30:15 10° N 16:35:38 87° E 16:42:20 10° S
Cosmos 1447 Rocket 4.4 16:30:31 10° NNW 16:36:40 73° W 16:42:54 10° S
Cosmos 1725 Rocket 4.5 16:30:58 10° SSW 16:36:43 39° W 16:42:27 10° NNW
Meteor 1-4 Rocket 3.5 16:35:28 10° N 16:39:00 51° E 16:42:33 10° SSE
Cosmos 1707 Rocket 3.5 16:35:34 10° SSW 16:40:05 71° W 16:44:31 10° N
CZ-2C R/B 3.0 16:38:41 10° N 16:42:36 49° W 16:46:34 10° SSW
SL-4 R/B 4.3 16:43:27 10° SW 16:45:59 16° S 16:48:26 10° SE
CZ-2C R/B 2.3 16:45:54 18° WNW 16:48:11 31° NNW 16:51:50 10° NE
Cosmos 1470 Rocket 3.9 16:44:48 10° N 16:49:16 74° E 16:53:50 10° SSE
Cosmos 1697 Rocket 4.2 16:47:49 10° N 16:53:03 39° ENE 16:58:19 10° SE
ARIANE 5 R/B 4.3 16:55:33 12° W 16:55:33 12° W 16:57:11 10° WSW
CZ-2C R/B 3.7 16:51:46 10° NNW 16:56:03 28° W 17:00:15 10° SW
ISS -1.1 16:54:52 10° SSW 16:57:16 17° SSE 16:59:39 10° ESE
Cosmos 1656 3.6 16:53:21 10° NNW 16:58:55 83° WSW 17:04:27 10° SSE
Cosmos 1536 2.8 16:56:17 10° NNW 17:00:17 62° W 17:04:19 10° S
Landsat 4 3.6 16:58:23 10° NNE 17:02:08 84° WNW 17:05:59 10° SSW
Cosmos 1140 Rocket 3.6 17:00:15 10° NNW 17:05:27 60° WSW 17:10:42 10° SSE
ATLAS 2AS CENTAUR R/B 4.3 17:01:23 10° WSW 17:05:48 19° SSW 17:10:22 10° SSE
Meteor 1-13 Rocket 4.3 17:00:37 10° SSW 17:06:35 71° W 17:12:22 10° N
NOAA 12 4.4 17:02:27 10° NNE 17:07:48 80° ESE 17:13:13 10° S
Meteor 2-13 Rocket 4.5 17:03:49 10° N 17:10:00 83° W 17:16:15 10° S
Envisat 4.5 17:09:36 10° NW 17:12:39 16° W 17:15:43 10° SW
Cosmos 405 Rocket 2.7 17:12:05 10° SSW 17:15:47 56° W 17:19:28 10° N
H-2A R/B 2.5 17:11:38 10° NNE 17:16:48 68° ESE 17:21:53 10° S
Cosmos 2084 3.9 17:14:46 10° NNW 17:19:34 79° NE 17:24:30 10° SE
Meteor 1-23 Rocket 4.4 17:16:24 10° S 17:22:09 90° E 17:27:55 10° N
FengYun 1-2 T 4.3 17:16:51 10° NNE 17:22:32 81° WNW 17:28:15 10° SSW
Cosmos 2227 Rocket 2.8 17:20:28 10° SSW 17:26:11 66° ESE 17:31:49 10° NNE
Cosmos 2034 Rocket 4.2 17:21:46 10° S 17:28:02 81° E 17:34:16 10° N
